Regional Weather Roundup
Issued by NWS Raleigh/Durham, NC

Home | Current Version | Previous Version | Text Only | Print | Product List | Glossary On
Versions: 1 2 3 4 5 6 7 8 9 10 11 12 13 14 15 16 17 18 19 20 21 22 23 24 25 26 27 28 29 30 31 32 33 34 35 36 37 38 39 40 41 42 43 44 45 46 47 48 49 50
000
ASUS42 KRAH 011510
RWRRAH
NORTH CAROLINA WEATHER ROUNDUP
NATIONAL WEATHER SERVICE RALEIGH NC
1100 AM EDT FRI AUG 01 2014

NOTE: "FAIR" INDICATES FEW OR NO CLOUDS BELOW 12,000 FEET WITH NO
SIGNIFICANT WEATHER AND/OR OBSTRUCTIONS TO VISIBILITY.

NCZ001-053-055-056-065-067-011600-
WESTERN NORTH CAROLINA

CITY           SKY/WX    TMP DP  RH WIND       PRES   REMARKS
ASHEVILLE      CLOUDY    66  59  78 VRB6      30.19R
JEFFERSON      LGT RAIN  59  57  94 CALM      30.25R
MORGANTON      LGT RAIN  65  64  97 N6        30.22S
HICKORY        LGT RAIN  65  62  90 NE8       30.17R FOG
RUTHERFORDTON  CLOUDY    65  63  91 N8        30.16R
MOUNT AIRY     CLOUDY    67  64  90 NE5       30.18S
BOONE          DRIZZLE   59  59 100 E5        30.25S
$$

NCZ021-022-025-041-071-084-088-011600-
CENTRAL NORTH CAROLINA

CITY           SKY/WX    TMP DP  RH WIND       PRES   REMARKS
CHARLOTTE      CLOUDY    67  63  87 NE14      30.10S
GREENSBORO     RAIN      64  64 100 N8        30.16R FOG
WINSTON-SALEM  RAIN      65  63  93 N6        30.19R FOG
RALEIGH-DURHAM CLOUDY    74  67  78 NE9       30.13R
FORT BRAGG     CLOUDY    75  69  79 E9G20     30.09R
FAYETTEVILLE   CLOUDY    75  69  81 E10       30.08R
BURLINGTON     CLOUDY    68  65  90 N8        30.15R FOG
LAURINBURG     CLOUDY    76  70  82 E13       30.08R
$$

NCZ011-015-027-028-043-044-047-080-103-011600-
NORTHEASTERN NORTH CAROLINA

CITY           SKY/WX    TMP DP  RH WIND       PRES   REMARKS
ROCKY MT-WILSO LGT RAIN  73  68  84 E5        30.14R
GREENVILLE     RAIN      72  70  94 NE6       30.13S
WASHINGTON     CLOUDY    71  70  96 NE6       30.12R
ELIZABETH CITY CLOUDY    76  69  79 NE10      30.15S
MANTEO         NOT AVBL
CAPE HATTERAS  LGT RAIN  79  76  90 E9        30.10S
$$

NCZ078-087-090-091-093-098-101-011600-
SOUTHEASTERN NORTH CAROLINA

CITY           SKY/WX    TMP DP  RH WIND       PRES   REMARKS
LUMBERTON      CLOUDY    76  71  85 E8        30.07R
GOLDSBORO      LGT RAIN  68  68 100 NE14      30.11R FOG
KINSTON        HVY RAIN  72  72 100 N5        30.13R VSB 1
KENANSVILLE    DRIZZLE   72  70  95 NE3       30.11S
NEW BERN       LGT RAIN  77  73  88 NE6       30.11S
CHERRY POINT   RAIN      76  74  93 CALM      30.11R FOG
BEAUFORT       RAIN      77  72  84 SE12      30.11R
JACKSONVILLE   LGT RAIN  74  72  93 E10       30.09S
WILMINGTON     RAIN      74  73  97 VRB5      30.08R FOG
$$




USA.gov is the U.S. government's official web portal to all federal, state and local government web resources and services.